Location: Zagreb
(45.8150°N, 15.9819°E)
Time: 17:51:23
(UTC+02:00)

X-37B - Visible Passes

Search period start: 04 August 2021 00:00
Search period end: 14 August 2021 00:00
Orbit: 383 x 392 km, 45.0° (Epoch: 01 July)

Date Brightness Start Highest point End Pass type
(mag) Time Alt. Az. Time Alt. Az. Time Alt. Az.
04 Aug 1.2 04:15:58 26° SSW 04:17:17 41° SSE 04:20:20 10° E visible
05 Aug 2.4 03:20:05 23° ESE 03:20:05 23° ESE 03:21:51 10° E visible
05 Aug 0.6 04:52:22 11° WSW 04:55:27 72° S 04:58:39 10° E visible
06 Aug 0.7 03:56:29 46° SW 03:57:07 57° SSE 04:00:16 10° E visible
07 Aug 2.8 03:00:38 20° E 03:00:38 20° E 03:01:51 10° E visible
07 Aug 0.5 04:32:54 16° W 04:35:19 79° S 04:38:32 10° E visible
08 Aug 0.5 03:37:06 71° SSE 03:37:06 71° SSE 03:40:09 10° E visible
08 Aug 0.6 05:10:23 10° W 05:13:33 66° S 05:16:44 10° ESE visible
09 Aug 3.4 02:41:21 13° E 02:41:21 13° E 02:41:47 10° E visible
09 Aug 0.5 04:13:38 27° W 04:15:12 77° S 04:18:24 10° E visible
10 Aug 1.8 03:18:01 36° E 03:18:01 36° E 03:20:02 10° E visible
10 Aug 0.8 04:50:18 10° W 04:53:23 49° SSW 04:56:30 10° ESE visible
11 Aug 0.5 03:54:51 62° SW 03:55:04 65° S 03:58:15 10° ESE visible
12 Aug 3.5 02:59:37 12° E 02:59:37 12° E 02:59:55 10° E visible
12 Aug 1.3 04:31:56 24° WSW 04:33:11 34° SSW 04:36:07 10° SE visible
13 Aug 2.8 03:37:02 18° SE 03:37:02 18° SE 03:38:01 10° ESE visible
13 Aug 2.5 05:09:24 11° WSW 05:11:04 14° SSW 05:12:53 10° S visible
